TIANWANG 1B (TW-1B)
1 40927U 15051C   18180.11506955  .00010429  00000-0  20077-3 0  9999
2 40927  97.1906 222.2217 0008061 238.6644 177.1658 15.48037962155069
TIANWANG 1A (TW-1A)
1 40928U 15051D   18179.78109153 +.00003316 +00000-0 +88490-4 0  9991
2 40928 097.1844 213.5401 0010011 282.0719 167.0345 15.38785280154560
LAPAN A2
1 40931U 15052B   18179.13567035 +.00000675 +00000-0 +49730-5 0  9992
2 40931 006.0002 071.9624 0012952 166.2169 193.8306 14.76578571148628
LQSAT
1 40958U 15057A   18179.78114205 +.00000006 +00000-0 +86753-5 0  9998
2 40958 097.9398 252.6675 0017036 302.2974 057.6580 14.73035919146565
CHUBUSAT 2
1 41338U 16012B   18179.55987483 +.00000334 +00000-0 +19327-4 0  9990
2 41338 031.0024 241.3936 0013783 186.1354 173.9114 14.99991250129545
CHUBUSAT 3
1 41339U 16012C   18179.57220618 +.00000340 +00000-0 +19736-4 0  9994
2 41339 031.0112 239.8951 0013684 193.7322 166.2944 15.00178358129536
OUFTI-1
1 41458U 16025C   18179.74312900 +.00002434 +00000-0 +12883-3 0  9996
2 41458 098.1345 243.2100 0171152 108.8585 253.1254 15.04718555119181
E-STAR-2
1 41459U 16025D   18179.75207526 +.00002296 +00000-0 +12213-3 0  9998
2 41459 098.1368 243.0559 0172580 109.5576 252.4353 15.04450113119160
AAUSAT 4
1 41460U 16025E   18179.78606809 +.00004860 +00000-0 +25147-3 0  9999
2 41460 098.1301 243.6080 0162850 105.3907 256.5366 15.05913777119233
NUSAT 1
1 41557U 16033B   18179.82893629 +.00001569 +00000-0 +59949-4 0  9999
2 41557 097.4378 264.0230 0016013 119.3525 240.9316 15.28042708115937
BEESAT 4
1 41619U 16040W   18179.63905378 +.00001588 +00000-0 +72194-4 0  9998
2 41619 097.4144 242.6273 0011514 181.8455 178.2741 15.22162964099839
PRATHAM
1 41783U 16059A   18179.83319500 +.00000066 +00000-0 +22093-4 0  9991
2 41783 098.1167 241.2046 0034773 060.4641 300.0021 14.62929430093661
ALSAT 1N
1 41789U 16059G   18179.78073961 +.00000063 +00000-0 +20977-4 0  9995
2 41789 098.1179 242.3984 0029398 052.8422 307.5452 14.64162209093713
NAYIF 1
1 42017U 17008BX  18179.91131752 +.00001634 +00000-0 +69425-4 0  9999
2 42017 097.4473 244.8990 0005930 354.9914 005.1263 15.24488503075850
LILACSAT-1
1 42725U 98067ME  18179.88880720 +.00024820 +00000-0 +20623-3 0  9999
2 42725 051.6366 298.3971 0004477 283.2045 076.8453 15.70001446062373
MAX VALIER SAT
1 42778U 17036P   18180.15160174  .00001168  00000-0  55161-4 0  9996
2 42778  97.4025 239.6657 0013539  35.0716 325.1409 15.21341371 56326
